Temperature
16 17 17 17 14 12 14 15 17 19 20 22 22 22 20 20 20 20 20 20 20 20 19 19 19 18 18 17 17 17 16 16 16 16 15 15 15 15 15 15 15 15 15 15 15 15 15 15 15
16 16 17 16 13 13 14 15 17 19 21 22 23 22 21 20 20 20 19 19 20 20 19 19 19 18 18 17 17 17 16 16 16 16 16 16 16 15 15 15 15 15 15 15 15 15 15 15 14
16 16 16 13 12 13 15 17 18 20 22 22 22 22 21 20 20 20 20 20 20 20 19 19 18 18 18 17 17 17 17 16 16 16 16 16 16 16 15 15 15 15 15 15 15 15 15 15 14
15 15 15 12 13 14 15 17 18 19 21 22 22 20 20 20 20 21 20 20 20 20 19 18 18 18 18 17 17 17 17 17 17 17 17 17 16 16 16 15 15 15 15 15 15 15 15 15 14
15 15 12 12 13 14 15 17 18 18 20 22 21 19 19 20 20 20 20 19 19 19 18 18 17 17 17 17 17 17 17 17 18 18 18 17 17 16 16 16 15 15 15 15 15 15 15 15 14
14 12 11 12 13 14 16 18 18 18 20 21 21 19 18 19 19 19 19 19 19 19 18 17 17 17 17 17 17 17 17 18 18 18 18 18 17 17 17 16 16 15 15 15 15 15 15 15 14
12 11 11 12 13 14 16 18 18 18 19 20 21 18 18 18 18 18 18 18 18 18 17 16 16 16 16 16 16 17 17 18 18 18 18 18 18 17 17 16 16 16 16 15 15 15 15 15 15
13 11 11 12 13 14 17 18 19 19 19 21 21 18 18 18 18 17 17 17 17 17 17 16 16 16 16 16 16 17 17 18 18 18 18 18 18 17 17 17 16 16 16 16 16 15 15 15 15
12 11 11 12 13 15 17 17 18 19 20 20 20 20 20 18 18 17 17 17 17 17 16 16 16 16 16 16 16 17 17 17 18 18 18 18 18 17 17 17 16 16 16 16 16 15 15 15 15
11 10 11 13 14 15 16 17 18 19 18 19 19 19 18 18 18 18 17 17 17 16 16 16 16 16 16 16 16 17 17 17 18 18 18 18 18 17 17 17 16 16 16 16 16 15 15 15 15
11 10 12 14 15 16 16 17 18 18 17 18 19 19 18 18 18 18 17 17 17 17 16 16 16 16 16 16 16 16 17 17 18 18 18 18 18 17 17 17 17 16 16 16 16 16 15 15 15
10 11 13 14 15 15 16 16 17 17 18 19 20 20 19 18 18 18 18 17 17 16 16 16 15 15 15 16 16 16 17 17 17 18 18 18 18 17 17 17 17 17 16 16 16 16 15 15 15
11 12 13 14 15 15 16 16 16 17 18 18 19 19 19 18 18 18 18 17 17 16 16 16 15 15 15 15 15 16 16 16 17 17 17 17 17 17 17 17 16 16 16 16 16 16 15 15 15
11 12 13 13 14 15 15 15 16 17 17 18 18 18 18 18 18 18 17 17 16 16 16 16 15 15 15 15 15 15 15 16 16 16 16 17 17 17 17 16 16 16 16 16 16 15 15 15 15
12 11 11 12 13 14 15 14 14 16 17 17 17 18 18 18 18 18 18 17 17 16 16 16 15 15 15 15 15 15 15 15 15 16 16 16 16 16 16 16 16 16 15 15 15 15 15 14 14
10 10 10 11 12 13 14 13 14 16 16 17 17 17 17 17 17 17 17 17 17 16 16 16 15 15 15 15 15 15 15 15 15 15 15 15 15 15 15 15 15 15 15 15 14 14 14 14 14
9 9 9 11 12 12 12 12 13 16 16 16 17 17 17 17 17 17 17 17 17 16 16 16 16 15 15 15 15 15 15 15 15 15 15 15 15 15 15 15 15 14 14 14 14 14 13 13 13
8 8 9 10 11 12 11 11 13 15 15 16 16 17 17 17 17 17 17 17 17 17 16 16 16 15 15 15 15 15 14 15 14 14 14 14 14 14 14 14 14 14 13 13 13 13 13 13 12
9 9 9 10 11 11 11 11 12 14 14 14 15 16 17 17 17 17 17 17 17 17 16 16 16 15 15 15 15 15 15 15 15 15 15 14 14 14 14 14 14 14 13 13 13 13 12 12 12
9 9 9 10 11 11 10 11 11 12 13 14 15 15 16 16 16 16 17 17 17 17 16 16 16 15 15 15 15 15 15 15 15 15 14 14 14 14 14 14 14 13 13 13 13 12 12 12 12
8 8 8 9 11 11 10 10 11 11 13 14 15 15 16 16 16 16 16 16 16 16 16 16 16 16 15 15 15 15 14 14 14 14 14 14 14 14 14 14 13 13 13 13 13 12 12 12 12
8 9 9 10 9 9 10 8 9 10 11 12 13 14 14 15 15 15 15 15 16 16 16 16 15 15 15 15 15 15 14 14 15 14 14 14 14 14 14 13 13 13 13 12 12 12 12 12 12
8 9 9 9 9 9 9 8 9 9 10 11 11 13 14 14 14 14 14 14 14 15 15 15 15 15 15 14 14 14 14 14 14 14 14 14 14 13 13 13 13 13 12 12 12 12 12 12 11
8 8 8 8 8 8 8 8 8 8 10 11 11 12 13 13 13 13 13 13 13 13 14 14 14 14 14 14 14 13 13 13 13 13 13 13 13 13 13 13 12 12 12 12 12 12 11 11 11
8 7 7 8 8 7 8 8 9 9 10 10 10 11 12 12 12 12 12 12 12 12 12 13 13 13 13 13 13 13 13 13 13 13 13 13 13 12 12 12 12 12 12 12 11 11 11 11 11
7 7 7 7 7 7 8 8 9 9 10 11 11 11 11 11 11 11 11 11 11 11 11 11 12 12 12 12 12 12 12 12 12 12 12 12 12 12 12 11 11 11 11 11 11 11 11 10 10
7 7 7 7 7 7 7 8 9 9 8 8 9 10 10 11 11 11 10 10 10 10 10 10 10 11 11 11 11 11 11 11 11 11 11 11 11 11 11 10 10 10 10 10 10 10 10 10 9
8 7 6 6 7 7 8 8 8 9 8 8 8 9 10 10 10 10 10 10 9 9 9 9 9 9 10 10 9 10 10 10 10 10 10 10 10 10 10 10 10 9 9 9 9 9 9 9 9
7 7 6 6 6 7 7 8 9 8 8 8 8 9 10 10 10 10 9 9 9 8 8 8 8 8 8 8 9 9 9 9 9 9 9 9 9 9 9 9 9 9 8 8 8 8 8 8 8
7 7 6 6 6 6 6 7 9 8 8 8 8 9 10 10 10 9 9 8 8 8 8 8 8 8 8 8 8 8 8 8 8 8 8 8 8 8 8 8 8 8 7 7 7 7 7 7 7
Wind_Speed
5 4 3 4 5 4 4 6 5 4 3 2 2 7 8 5 3 5 3 12 16 16 19 23 22 21 21 20 19 18 17 16 15 15 14 12 11 11 11 12 12 13 15 15 15 15 14 14 14
2 1 4 5 5 3 6 6 6 6 5 3 3 6 7 4 2 7 5 12 19 19 19 21 23 22 21 20 19 18 17 16 15 14 13 12 11 11 12 13 13 14 15 15 15 14 13 13 13
1 1 4 4 5 7 7 5 5 5 6 3 2 5 6 5 4 6 9 16 16 16 18 21 23 22 21 20 19 18 17 16 15 13 12 11 11 11 13 14 14 15 15 15 14 13 12 12 11
2 3 4 3 7 8 7 5 3 5 5 2 4 6 4 2 3 8 16 17 16 12 17 21 23 22 22 20 19 18 18 16 15 13 12 12 12 12 14 14 15 15 15 14 13 12 11 10 10
3 4 3 3 7 7 7 7 5 5 3 3 3 6 3 7 7 17 17 17 16 12 16 21 23 22 22 20 19 19 18 16 14 13 12 12 12 13 14 14 15 14 14 14 12 11 10 8 8
3 4 5 8 9 8 7 6 4 5 4 3 3 5 1 2 9 14 16 16 15 14 16 20 23 22 21 20 19 19 17 16 14 13 13 13 13 14 14 14 14 14 14 13 12 11 9 7 6
5 6 8 9 9 10 11 6 4 5 5 4 3 6 2 2 6 11 13 14 14 15 14 15 19 21 21 21 20 19 17 16 14 13 13 13 14 14 14 13 14 14 13 12 11 10 8 6 5
4 6 7 8 10 11 9 6 6 5 6 2 5 8 6 5 7 12 13 13 13 12 11 12 15 17 18 19 20 20 18 16 15 14 14 14 14 13 13 13 13 13 13 12 11 9 8 6 4
4 5 10 11 11 9 6 6 8 4 3 1 1 5 7 10 12 15 13 12 11 12 10 10 12 14 16 16 18 19 18 17 15 15 15 14 13 12 11 12 13 13 12 12 11 9 8 7 5
5 7 11 7 7 5 4 6 6 3 3 0 4 4 7 10 14 15 15 14 13 13 11 9 10 12 14 14 15 15 14 15 15 15 15 13 12 11 10 11 12 13 12 11 10 9 8 7 6
7 8 5 4 4 2 4 6 4 4 5 6 9 10 9 11 12 12 11 12 13 13 12 11 9 12 12 10 12 12 12 13 14 15 15 13 12 10 10 10 11 12 11 10 9 9 8 8 7
6 5 5 4 2 3 4 5 4 4 6 6 11 13 10 12 12 13 12 11 11 12 12 12 10 10 11 12 11 11 10 11 11 14 15 13 9 8 9 10 11 11 11 10 9 8 9 9 9
6 4 5 4 3 4 3 4 4 4 4 2 8 10 11 10 9 9 10 10 10 11 11 12 11 11 10 10 9 10 10 11 13 14 15 15 10 7 9 10 11 12 12 11 9 9 9 9 10
6 5 4 4 4 3 4 3 3 5 1 3 7 8 9 10 9 8 8 9 9 10 10 10 11 11 11 8 7 8 11 13 13 13 16 17 14 12 10 9 10 12 13 13 12 11 9 8 8
4 4 4 5 6 4 5 5 7 5 1 1 3 5 6 7 8 9 10 10 9 9 9 9 10 9 10 9 8 9 11 12 12 13 17 18 17 15 13 9 8 12 15 14 12 10 9 6 6
5 5 5 6 8 6 8 11 9 4 3 3 3 4 5 5 7 8 9 9 8 8 8 8 8 9 9 8 7 7 10 11 11 13 14 17 18 18 14 8 8 14 14 12 7 5 5 6 5
6 8 9 6 7 6 8 8 7 4 5 6 6 5 5 5 5 6 8 9 9 9 9 9 8 8 8 7 6 7 8 8 9 11 12 14 16 17 14 10 10 13 10 8 6 6 5 6 6
9 8 8 9 6 7 8 7 6 4 5 8 7 6 6 6 7 5 6 7 8 8 7 8 7 6 6 5 4 4 4 4 7 8 10 13 13 15 14 9 10 11 7 7 6 6 6 5 5
6 6 7 7 5 7 9 10 9 7 6 7 7 7 7 6 4 2 3 5 5 4 5 5 6 5 5 4 4 4 5 4 4 5 9 11 12 13 11 7 7 8 8 9 9 7 7 6 4
5 6 6 3 5 7 8 12 9 9 9 9 8 8 8 5 3 1 2 3 5 5 4 4 4 4 4 4 4 3 3 3 4 3 6 10 10 11 10 8 7 7 8 9 9 8 5 5 6
6 7 7 5 3 4 4 7 11 10 9 8 8 8 8 8 7 5 4 3 4 4 3 3 3 3 3 3 2 1 1 0 1 3 4 5 8 9 10 9 7 7 8 9 10 10 9 8 7
6 5 6 5 5 5 7 6 8 10 11 12 12 9 9 7 7 6 6 4 4 3 2 3 3 3 2 2 3 3 4 4 4 3 3 3 5 6 8 8 8 7 7 8 9 9 9 8 7
4 3 5 5 4 2 3 4 8 5 12 15 14 11 10 9 8 8 7 6 5 4 4 3 4 4 3 3 3 3 3 3 2 1 2 3 3 4 5 6 5 6 7 8 8 8 9 8 8
3 3 4 3 2 4 7 6 7 7 11 10 10 11 10 9 8 7 6 6 5 4 4 4 5 4 4 4 3 2 2 1 0 1 2 2 2 2 3 4 4 4 5 6 7 7 8 8 9
4 5 4 3 4 6 6 6 10 9 9 11 12 11 10 10 9 8 8 6 5 5 5 5 5 5 4 5 4 3 2 1 1 1 1 1 1 2 3 2 3 3 4 4 5 5 6 6 7
7 6 5 6 6 4 5 9 8 7 6 6 9 11 11 10 9 9 8 7 6 6 5 5 5 5 5 5 4 4 4 2 1 1 1 1 1 1 2 2 2 2 2 3 3 3 4 3 4
6 5 3 3 2 2 6 6 7 2 3 6 10 11 10 10 9 9 8 7 6 6 5 5 6 5 5 5 5 5 5 4 4 3 3 2 2 2 3 3 3 3 3 3 2 1 2 1 1
3 6 4 4 4 4 5 5 5 5 7 8 10 10 9 8 8 8 7 6 6 6 6 6 6 6 5 6 5 5 5 5 5 5 5 5 5 5 5 5 5 5 5 5 4 3 3 4 4
5 4 4 4 3 4 4 6 5 10 11 11 10 9 10 9 9 7 6 6 6 6 6 6 6 6 5 5 5 6 6 6 6 6 6 5 6 6 6 6 6 7 7 6 6 6 6 6 6
4 6 6 5 5 4 3 7 6 7 9 9 9 8 8 9 8 8 7 7 6 6 6 6 5 5 5 5 6 6 6 6 7 7 7 6 7 7 7 7 8 8 8 8 8 8 8 8 7
Wind_Direction
320 336 71 59 61 64 235 243 238 280 269 244 165 118 109 98 142 161 113 140 138 145 153 152 150 147 145 142 140 136 134 130 126 123 119 117 117 118 121 119 115 114 110 105 100 97 95 96 98
326 23 66 67 108 176 249 246 248 249 235 221 147 106 90 82 99 110 120 146 143 146 152 153 149 146 144 142 140 137 134 130 126 123 121 121 122 123 126 124 120 117 113 108 105 102 100 100 100
323 57 96 96 153 192 226 240 244 282 272 224 98 78 99 128 144 133 148 143 140 143 149 153 148 146 145 143 140 138 135 131 127 125 124 125 127 129 130 126 121 118 117 115 112 109 106 104 101
89 67 74 120 214 223 227 261 310 314 315 322 98 70 52 346 175 137 139 139 137 135 145 152 148 147 145 143 142 140 136 133 130 129 128 128 130 131 130 127 125 123 124 122 119 117 114 109 104
79 106 118 202 232 246 252 271 294 287 281 315 91 99 42 345 101 129 138 140 139 136 145 152 148 147 146 145 144 141 139 137 136 135 136 134 134 133 134 132 132 131 132 130 128 126 123 118 108
104 109 160 212 233 256 265 266 293 280 277 301 105 106 91 29 111 136 141 141 141 142 147 154 150 149 149 149 146 143 142 142 142 142 143 140 138 138 139 140 141 139 140 140 138 136 135 131 120
148 151 188 200 224 249 252 256 252 262 276 257 145 115 126 111 126 137 138 138 140 143 146 151 152 153 152 151 148 147 147 146 147 147 146 143 142 143 145 148 149 149 149 148 148 148 150 150 141
159 150 182 193 211 236 248 265 261 247 253 249 133 141 166 175 127 124 130 136 140 144 149 151 155 156 154 153 153 152 151 151 150 147 145 145 146 147 150 153 156 157 157 157 159 161 165 171 173
129 152 198 195 200 229 249 257 269 257 238 346 100 166 163 137 120 124 130 136 144 150 154 155 156 156 155 156 158 155 155 155 152 150 149 148 150 153 155 158 162 163 165 166 169 174 180 189 202
152 195 210 196 191 211 253 251 260 282 263 61 56 80 115 121 127 137 147 151 155 160 164 162 159 158 157 159 158 156 156 158 157 159 158 159 162 165 165 168 169 170 172 175 180 185 191 201 221
178 201 200 213 201 203 253 273 271 222 235 197 165 156 144 132 134 143 153 158 163 165 167 170 167 164 162 157 159 161 161 164 168 171 173 171 172 176 174 174 175 177 179 184 191 194 201 212 228
184 205 183 211 212 209 232 257 275 238 232 215 172 159 153 152 154 156 159 160 162 166 172 174 171 168 169 164 168 169 167 173 179 185 186 180 178 181 183 183 184 183 186 191 197 204 216 226 237
207 191 194 218 221 216 226 238 238 242 253 159 141 147 159 165 168 169 162 160 159 166 172 174 172 171 172 169 173 177 179 184 190 193 196 191 185 185 187 192 193 195 196 199 206 214 223 235 243
196 204 220 209 218 211 199 242 219 222 192 99 129 150 167 172 171 168 169 173 174 172 172 170 171 172 171 174 177 180 187 191 194 198 200 198 194 190 190 194 199 203 205 208 212 217 221 229 234
166 181 231 223 202 204 169 232 228 218 156 121 145 160 166 176 173 177 182 183 183 180 176 172 172 170 173 177 183 185 189 190 194 201 205 201 198 196 194 196 201 208 210 212 216 223 226 232 231
158 177 204 222 191 192 169 221 233 228 203 230 215 194 189 194 190 187 184 183 181 177 181 183 181 177 179 179 182 186 190 192 197 201 204 205 202 199 198 201 205 208 208 208 208 211 219 229 230
165 189 197 212 196 177 180 221 244 237 214 234 232 224 218 214 211 203 191 184 180 180 183 189 189 185 188 186 184 186 188 194 200 202 204 208 207 204 202 206 209 205 204 205 209 207 204 217 226
180 175 178 196 202 176 197 228 253 264 225 233 237 231 226 221 221 205 191 182 173 172 174 180 186 188 189 188 187 192 196 199 203 205 210 212 213 211 208 211 209 202 203 208 208 209 208 210 212
154 154 174 203 206 180 213 235 246 262 256 242 239 228 225 224 231 195 174 164 153 150 155 168 175 186 180 180 190 198 211 211 210 213 215 215 217 216 212 214 209 206 212 214 211 210 214 219 187
185 175 184 217 211 190 219 241 245 244 243 233 224 222 214 208 199 151 122 120 128 136 138 142 154 164 178 194 195 195 199 212 219 221 226 225 224 224 220 215 216 214 218 220 216 210 212 213 185
207 191 186 197 196 186 179 259 248 247 241 241 229 211 200 190 182 164 129 114 114 117 127 135 140 145 163 176 162 142 141 196 225 235 238 237 236 235 231 227 221 220 218 224 222 215 213 221 210
213 205 199 190 156 204 183 235 257 231 236 234 230 214 200 185 167 156 143 127 118 120 107 107 119 116 116 131 139 158 187 211 226 236 245 256 246 244 242 237 231 228 226 226 227 222 220 218 221
192 197 192 179 158 172 187 202 272 230 226 230 223 213 200 181 165 156 147 137 121 104 89 82 86 80 78 96 133 156 185 219 247 261 264 263 266 262 258 249 242 241 237 236 235 229 223 221 223
158 107 89 73 108 218 208 193 264 227 218 219 211 202 187 171 156 143 131 119 103 87 78 78 81 68 60 74 86 127 161 190 220 278 274 275 276 277 282 272 258 251 249 247 245 240 233 230 228
156 138 139 164 196 231 195 200 246 245 230 212 197 184 170 159 150 143 136 125 112 95 81 79 82 65 53 61 60 63 88 121 166 244 266 295 312 313 314 300 279 270 264 260 253 244 242 236 233
181 168 169 177 190 232 193 221 250 273 258 195 166 157 151 151 150 146 142 133 121 106 93 88 84 70 55 60 58 50 49 57 53 43 43 29 334 312 327 334 332 321 309 289 267 251 250 248 244
154 186 177 132 151 191 235 262 299 13 96 128 139 144 152 154 152 147 141 133 126 112 100 98 93 77 59 57 64 55 46 51 54 48 45 36 14 8 10 14 19 13 8 357 348 340 315 315 317
157 152 136 148 166 217 255 246 235 209 184 168 161 158 157 151 147 144 142 138 129 118 104 91 88 81 64 57 57 64 50 49 53 57 50 42 31 30 33 34 35 34 32 35 46 44 39 57 48
161 163 167 159 182 179 234 261 227 208 194 182 177 169 164 161 158 154 148 139 128 117 108 99 89 81 69 63 62 60 52 51 54 55 47 45 42 41 44 44 48 46 41 40 52 54 56 67 62
178 182 165 167 208 191 199 266 290 228 189 170 170 171 167 162 159 154 147 138 131 125 117 109 101 92 82 77 73 66 59 58 57 53 46 48 51 48 49 52 56 54 50 49 56 59 58 65 68
Height
1529 1531 1532 1534 1538 1547 1546 1536 1527 1523 1520 1517 1517 1516 1517 1521 1524 1529 1526 1526 1530 1532 1535 1539 1543 1546 1548 1550 1552 1554 1556 1557 1558 1558 1558 1558 1559 1559 1559 1560 1561 1562 1562 1562 1562 1562 1562 1562 1562
1527 1529 1532 1533 1542 1552 1545 1531 1525 1520 1517 1516 1516 1516 1517 1520 1521 1522 1524 1527 1531 1533 1535 1539 1543 1546 1548 1550 1552 1554 1556 1557 1558 1558 1558 1559 1559 1559 1560 1561 1562 1563 1564 1564 1564 1564 1564 1564 1564
1525 1528 1531 1534 1543 1545 1537 1524 1521 1518 1516 1515 1515 1516 1518 1521 1522 1522 1525 1528 1531 1534 1536 1539 1543 1546 1548 1551 1552 1554 1556 1557 1558 1558 1559 1559 1560 1560 1561 1562 1563 1564 1565 1565 1566 1566 1566 1566 1566
1524 1527 1530 1536 1538 1532 1526 1521 1520 1518 1515 1514 1514 1517 1519 1522 1522 1523 1525 1528 1531 1534 1537 1540 1543 1546 1549 1551 1552 1554 1555 1557 1558 1558 1559 1560 1560 1561 1562 1563 1564 1565 1566 1567 1567 1567 1568 1568 1568
1521 1524 1531 1536 1534 1526 1521 1519 1520 1519 1516 1514 1514 1517 1520 1522 1522 1523 1525 1528 1530 1533 1537 1540 1544 1546 1549 1551 1552 1554 1555 1557 1558 1559 1560 1560 1561 1562 1563 1564 1565 1566 1567 1568 1569 1569 1569 1570 1570
1519 1521 1532 1534 1530 1522 1519 1518 1519 1518 1516 1515 1515 1517 1520 1522 1522 1524 1526 1529 1531 1534 1537 1541 1544 1546 1549 1551 1552 1554 1555 1557 1558 1559 1560 1561 1562 1563 1564 1565 1566 1567 1568 1569 1570 1570 1571 1571 1571
1516 1520 1526 1527 1527 1522 1517 1516 1518 1517 1516 1515 1515 1517 1520 1523 1524 1525 1527 1530 1532 1535 1537 1541 1544 1547 1549 1551 1552 1554 1555 1557 1558 1559 1560 1562 1563 1564 1565 1566 1567 1568 1569 1570 1571 1571 1572 1572 1573
1513 1518 1522 1524 1523 1519 1514 1515 1515 1516 1515 1514 1515 1516 1519 1522 1524 1526 1528 1531 1533 1536 1538 1541 1544 1546 1548 1551 1552 1554 1555 1557 1558 1559 1561 1562 1563 1564 1565 1566 1567 1568 1569 1570 1571 1572 1572 1573 1573
1511 1518 1519 1517 1517 1515 1512 1514 1513 1514 1513 1513 1514 1514 1516 1520 1523 1526 1528 1531 1533 1536 1538 1541 1543 1546 1548 1550 1552 1554 1555 1557 1558 1559 1561 1562 1563 1564 1565 1566 1567 1568 1569 1570 1571 1572 1572 1573 1573
1509 1513 1510 1508 1510 1511 1512 1513 1513 1513 1512 1512 1513 1514 1516 1519 1522 1525 1527 1530 1532 1535 1537 1540 1543 1545 1547 1549 1551 1553 1555 1556 1558 1559 1560 1562 1563 1564 1565 1566 1567 1568 1569 1570 1571 1571 1572 1573 1573
1505 1507 1505 1506 1508 1510 1512 1511 1511 1513 1512 1511 1511 1513 1516 1519 1522 1525 1527 1529 1532 1534 1537 1539 1542 1544 1546 1548 1550 1552 1554 1555 1557 1558 1560 1561 1562 1563 1564 1566 1567 1568 1568 1569 1570 1571 1571 1572 1572
1503 1503 1504 1505 1507 1509 1511 1511 1510 1510 1510 1509 1509 1511 1514 1518 1521 1523 1526 1529 1531 1534 1536 1538 1541 1543 1545 1548 1549 1551 1553 1554 1556 1557 1558 1560 1561 1562 1564 1565 1566 1567 1568 1568 1569 1570 1570 1571 1571
1501 1501 1503 1505 1507 1508 1509 1510 1509 1509 1509 1508 1509 1511 1513 1517 1520 1523 1526 1528 1530 1533 1535 1538 1540 1542 1544 1546 1548 1549 1551 1553 1554 1556 1557 1558 1560 1561 1562 1563 1564 1565 1566 1567 1568 1568 1568 1569 1569
1498 1501 1502 1504 1505 1506 1508 1508 1509 1508 1508 1509 1509 1510 1513 1516 1519 1522 1524 1527 1529 1531 1534 1536 1538 1540 1542 1544 1546 1547 1549 1551 1553 1554 1556 1557 1558 1559 1560 1561 1562 1563 1564 1565 1566 1566 1566 1567 1567
1498 1501 1503 1503 1504 1505 1507 1509 1506 1506 1507 1508 1509 1510 1512 1515 1517 1519 1522 1524 1527 1530 1532 1534 1536 1539 1540 1542 1544 1546 1547 1549 1550 1552 1554 1555 1556 1557 1558 1558 1559 1561 1562 1562 1563 1563 1564 1564 1564
1498 1502 1506 1502 1502 1503 1508 1509 1503 1504 1505 1506 1507 1509 1511 1513 1516 1518 1520 1522 1525 1527 1530 1532 1535 1536 1538 1540 1542 1544 1545 1547 1548 1550 1551 1552 1553 1554 1555 1556 1557 1558 1559 1559 1559 1560 1560 1561 1561
1498 1503 1504 1501 1499 1500 1504 1505 1501 1502 1503 1504 1506 1508 1509 1511 1514 1516 1518 1520 1522 1525 1527 1530 1532 1534 1536 1538 1540 1541 1543 1544 1545 1547 1548 1549 1550 1551 1552 1553 1554 1555 1555 1555 1556 1556 1557 1557 1558
1496 1499 1501 1502 1497 1499 1502 1502 1499 1499 1501 1502 1503 1505 1507 1509 1511 1514 1516 1518 1520 1522 1524 1526 1528 1530 1533 1535 1537 1538 1540 1541 1542 1543 1545 1546 1547 1548 1549 1549 1550 1551 1551 1552 1552 1553 1553 1553 1554
1492 1496 1499 1500 1496 1499 1501 1501 1499 1497 1498 1499 1500 1501 1503 1505 1508 1511 1513 1515 1517 1519 1521 1523 1525 1527 1529 1531 1532 1533 1535 1537 1538 1539 1541 1542 1543 1544 1545 1545 1546 1547 1547 1548 1548 1549 1549 1549 1550
1492 1496 1498 1497 1495 1498 1501 1500 1497 1496 1496 1496 1497 1498 1500 1502 1504 1507 1509 1511 1513 1515 1517 1519 1521 1523 1525 1526 1528 1530 1531 1533 1534 1536 1536 1537 1538 1539 1540 1541 1541 1542 1542 1543 1543 1544 1544 1544 1545
1493 1496 1498 1498 1496 1497 1502 1503 1498 1493 1493 1493 1494 1495 1496 1498 1500 1503 1505 1508 1510 1512 1514 1516 1517 1519 1521 1522 1524 1526 1527 1528 1530 1530 1531 1533 1533 1534 1535 1535 1536 1536 1537 1537 1537 1538 1538 1538 1539
1493 1492 1495 1496 1500 1504 1503 1510 1497 1491 1490 1489 1489 1490 1492 1495 1497 1500 1502 1504 1506 1508 1510 1512 1514 1515 1517 1518 1519 1521 1522 1523 1524 1525 1526 1528 1528 1529 1529 1530 1530 1530 1531 1531 1531 1532 1532 1532 1532
1491 1491 1493 1496 1500 1503 1502 1507 1498 1489 1488 1483 1483 1485 1488 1491 1494 1496 1499 1501 1503 1505 1506 1508 1510 1511 1512 1514 1515 1516 1517 1518 1519 1520 1521 1522 1522 1523 1523 1524 1524 1524 1524 1524 1525 1525 1525 1525 1525
1490 1493 1496 1498 1502 1506 1502 1506 1498 1487 1479 1476 1478 1481 1484 1488 1491 1494 1496 1498 1500 1501 1503 1505 1506 1507 1508 1509 1510 1511 1512 1513 1514 1515 1515 1516 1517 1517 1517 1517 1517 1518 1518 1518 1518 1518 1519 1518 1518
1490 1496 1500 1501 1503 1503 1497 1498 1489 1475 1471 1470 1472 1475 1480 1484 1488 1490 1493 1495 1497 1498 1500 1501 1502 1503 1504 1505 1506 1507 1508 1509 1509 1510 1510 1510 1511 1511 1511 1511 1511 1511 1511 1511 1511 1511 1512 1512 1512
1488 1492 1497 1500 1502 1502 1495 1493 1480 1471 1466 1466 1468 1472 1477 1482 1485 1488 1491 1493 1494 1496 1497 1498 1499 1500 1501 1502 1502 1503 1503 1504 1504 1505 1505 1505 1505 1505 1505 1505 1505 1505 1505 1505 1505 1505 1505 1505 1505
1487 1490 1490 1496 1497 1499 1494 1485 1476 1469 1467 1467 1469 1472 1476 1480 1483 1486 1489 1491 1492 1494 1495 1496 1496 1497 1498 1498 1499 1499 1499 1500 1500 1500 1500 1500 1500 1500 1500 1499 1499 1499 1499 1498 1498 1498 1498 1499 1499
1483 1486 1493 1497 1497 1494 1487 1483 1479 1471 1470 1470 1470 1472 1475 1479 1482 1485 1487 1489 1491 1492 1492 1493 1494 1494 1495 1495 1495 1495 1496 1496 1496 1496 1496 1496 1495 1495 1495 1495 1494 1494 1493 1493 1493 1493 1493 1493 1493
1484 1486 1487 1492 1493 1493 1491 1482 1467 1466 1465 1467 1469 1471 1475 1478 1481 1484 1486 1488 1489 1490 1490 1491 1492 1492 1492 1492 1492 1493 1493 1493 1492 1492 1492 1492 1492 1491 1491 1490 1490 1490 1489 1489 1489 1488 1488 1488 1488
1478 1480 1484 1489 1490 1492 1494 1483 1461 1461 1462 1465 1468 1472 1475 1478 1480 1483 1485 1486 1487 1488 1488 1489 1489 1490 1490 1490 1490 1490 1490 1490 1490 1489 1489 1489 1488 1488 1488 1487 1487 1486 1486 1486 1485 1485 1485 1485 1485